This is the latest recevied weather packets stored in our database for station/object K1WJY. If no packets are shown the sender has not sent any weather packets the latest 10 day(s).
| Time | Temp. | Humidity | Pressure | Rain* | Wind** | Luminosity | Snow |
|---|---|---|---|---|---|---|---|
| 1777939721 | 11.11° C | 84% | 1009.5 hPa | 0 mm | - | 0 W/m² | - |
| 1777939419 | 11.11° C | 87% | 1009.1 hPa | 0 mm | - | 0 W/m² | - |
| 1777939115 | 11.11° C | 83% | 1009.2 hPa | 0 mm | - | 0 W/m² | - |
| 1777938812 | 11.11° C | 83% | 1008.9 hPa | 0 mm | - | 0 W/m² | - |
| 1777938509 | 11.67° C | 82% | 1008.9 hPa | 0 mm | - | 0 W/m² | - |
| 1777938207 | 11.67° C | 81% | 1008.7 hPa | 0 mm | - | 1 W/m² | - |
| 1777937903 | 12.22° C | 79% | 1008.7 hPa | 0 mm | - | 2 W/m² | - |
| 1777937599 | 12.78° C | 76% | 1008.8 hPa | 0 mm | - | 3 W/m² | - |
| 1777937295 | 12.78° C | 78% | 1008.5 hPa | 0 mm | - | 6 W/m² | - |
| 1777936993 | 13.33° C | 76% | 1008.5 hPa | 0 mm | - | 10 W/m² | - |
| 1777936690 | 13.33° C | 73% | 1008.5 hPa | 0 mm | - | 12 W/m² | - |
| 1777936386 | 13.89° C | 72% | 1008.4 hPa | 0 mm | - | 16 W/m² | - |
| 1777936082 | 14.44° C | 71% | 1008.5 hPa | 0 mm | - | 20 W/m² | - |
| 1777935780 | 14.44° C | 70% | 1008.3 hPa | 0 mm | - | 24 W/m² | - |
| 1777935479 | 15° C | 68% | 1008 hPa | 0 mm | - | 31 W/m² | - |
| 1777935175 | 15.56° C | 69% | 1008.1 hPa | 0 mm | - | 36 W/m² | - |
| 1777934872 | 15.56° C | 67% | 1008 hPa | 0 mm | - | 38 W/m² | - |
| 1777934569 | 15.56° C | 67% | 1008.1 hPa | 0 mm | - | 39 W/m² | - |
| 1777934265 | 15.56° C | 68% | 1008 hPa | 0 mm | - | 41 W/m² | - |
| 1777933961 | 15.56° C | 67% | 1007.9 hPa | 0 mm | - | 52 W/m² | - |
| 1777933658 | 16.11° C | 66% | 1007.9 hPa | 0 mm | - | 75 W/m² | - |
| 1777933355 | 16.11° C | 66% | 1008 hPa | 0 mm | - | 83 W/m² | - |
| 1777933053 | 16.11° C | 66% | 1007.9 hPa | 0 mm | - | 102 W/m² | - |
| 1777932749 | 16.11° C | 68% | 1008 hPa | 0 mm | - | 51 W/m² | - |
| 1777932446 | 17.22° C | 64% | 1007.6 hPa | 0 mm | - | 57 W/m² | - |
* Rain latest hour (hover to see other rain measurements)
** Current wind speed in m/s (hover to see current wind gust speed)